Regional Weather Roundup
Issued by NWS

Home | Current Version | Previous Version | Text Only | Print | Product List | Glossary Off
Versions: 1 2 3 4 5 6 7 8 9 10 11 12 13 14 15 16 17 18 19 20 21 22 23 24 25 26 27 28 29 30 31 32 33 34 35 36 37 38 39 40 41 42 43 44 45 46 47 48 49 50

000
ASUS45 KBOU 201207
RWRCO

WEATHER ROUNDUP FOR COLORADO
NATIONAL WEATHER SERVICE DENVER/BOULDER CO
600 AM MDT MON OCT 20 2014

NOTE: "FAIR" INDICATES FEW OR NO CLOUDS BELOW 12000 FEET WITH NO
SIGNIFICANT WEATHER AND/OR OBSTRUCTIONS TO VISIBILITY.

COZ001>005-013-030-031-201300-
...NORTHWEST COLORADO...

CITY           SKY/WX    TMP DP  RH WIND       PRES   REMARKS
CRAIG          CLEAR     30  26  85 CALM      30.20S
HAYDEN         CLEAR     39  28  65 SE12      30.20S
MEEKER         CLEAR     36  32  85 NE6       30.21R
MOUNT WERNER   NOT AVBL
STEAMBOAT SPGS CLEAR     35  29  78 CALM      30.23R
WALDEN         CLEAR     28  23  80 SE6       30.28S WCI  22
$$

COZ006>008-011-201300-
...WEST CENTRAL VALLEYS...

CITY           SKY/WX    TMP DP  RH WIND       PRES   REMARKS
GRAND JUNCTION PTCLDY    47  34  60 SE8       30.13R
MONTROSE       CLEAR     44  37  76 SE7       30.20R
EAGLE          CLEAR     36  32  87 E5        30.29R
RIFLE          CLEAR     40  34  79 CALM      30.18S
DELTA          CLEAR     47  37  69 CALM      30.17S
NUCLA          CLEAR     45  36  70 SE10      30.22S
$$

COZ017>023-064>068-201300-
...SOUTHWEST COLORADO...

CITY           SKY/WX    TMP DP  RH WIND       PRES   REMARKS
DURANGO        CLEAR     40  38  93 CALM      30.22S
CORTEZ         CLEAR     39  37  92 CALM      30.20R
PAGOSA SPRINGS CLEAR     38  38 100 CALM      30.28R
TELLURIDE      PTCLDY    40  33  76 SE6       30.34R
WOLF CREEK PAS PTCLDY    34  28  80 SE6       30.46S WCI  29
$$

COZ009-010-012-014-032>034-037-058>063-201300-
...CENTRAL COLORADO...

CITY           SKY/WX    TMP DP  RH WIND       PRES   REMARKS
ASPEN          CLEAR    N/A N/A N/A CALM      30.27R
BUENA VISTA    PTCLDY    37  32  82 N3        30.32S
COPPER MTN     CLEAR     39  27  60 S16       30.47S
BERTHOUD PASS  FAIR      32  30  93 MISG      30.52S
COTTONWOOD PAS PTCLDY    45  30  57 W6        30.39R
GUNNISON       PTCLDY    32  27  80 CALM      30.34R
KREMMLING      CLEAR     30  27  86 CALM        N/A
LEADVILLE      CLEAR     32  29  88 CALM      30.38S
MONARCH PASS   CLEAR     36  30  80 CALM      30.57S
SALIDA         PTCLDY    38  33  81 NW3       30.39R
SUNLIGHT       PTCLDY    41  32  70 CALM      30.42S
WILKERSON PASS NOT AVBL
$$

COZ069>075-201300-
...SAN LUIS VALLEY/SANGRE DE CRISTO MOUNTAINS...

CITY           SKY/WX    TMP DP  RH WIND       PRES   REMARKS
ALAMOSA        MOCLDY    34  30  85 NE3       30.29R
LA VETA PASS   CLOUDY    41  28  60 NE6       30.40S
SAGUACHE       CLEAR     39  34  81 NW12      30.31S
$$

COZ035-036-038>040-201300-
...NORTHERN COLORADO FRONT RANGE...

CITY           SKY/WX    TMP DP  RH WIND       PRES   REMARKS
DENVER INTL AP PTCLDY    47  36  65 SW13      30.16S
DMNS CITY PARK   N/A     47  35  62 S6        30.17S
AURORA         CLEAR     49  37  62 S10       30.18R
FRONT RANGE AP CLEAR     48  39  71 SW9       30.18R
ERIE MUNI ARPT CLEAR     39  35  85 CALM      30.16R
BOULDER MUN AP CLEAR     45  39  81 CALM      30.15S
CENTENNIAL     PTCLDY    50  34  54 SW3       30.18S
BROOMFIELD     PTCLDY    50  32  50 CALM      30.17F
FORT COLLINS   CLEAR     43  36  75 CALM      30.16F
LONGMONT       CLEAR     40  34  80 SW3       30.17S
$$

COZ041-046-047-076>085-087-088-201300-
...PIKES PEAK/PALMER DIVIDE AND SOUTHERN FOOTHILLS...

CITY           SKY/WX    TMP DP  RH WIND       PRES   REMARKS
COLO. SPRINGS  CLEAR     42  36  79 N6        30.24R
A. F. ACADEMY  CLEAR     37  33  86 N10       30.24S
ELLICOTT       NOT AVBL
FALCON         CLEAR     40  34  80 W6        30.26S
FORT CARSON    CLEAR     42  35  74 NW8       30.21R
LIMON          CLEAR     35  33  92 N6        30.19S WCI  30
MONUMENT HILL  CLEAR     41  34  75 S9        30.24S
TRINIDAD       CLEAR     42  35  76 W9        30.22R
$$

COZ042>045-048>051-090-091-201300-
...NORTHEAST COLORADO...

CITY           SKY/WX    TMP DP  RH WIND       PRES   REMARKS
GREELEY ARPT   CLEAR     37  28  70 W5        30.16S
AKRON          CLEAR     46  39  76 SW9       30.15R
BURLINGTON     CLEAR     39  35  86 W7        30.15R
WRAY           CLEAR     38  36  91 W6        30.12S
STERLING       CLEAR     36  34  93 SW5       30.13S
HOLYOKE        CLEAR     37  34  87 W7        30.13R
FORT MORGAN    CLEAR     40  35  80 W6        30.15S
$$

COZ086-089-092>099-201300-
...SOUTHEAST COLORADO...

CITY           SKY/WX    TMP DP  RH WIND       PRES   REMARKS
PUEBLO         CLEAR     44  38  79 SW5       30.17S
LA JUNTA       CLEAR     44  40  85 W8        30.15R
LAMAR          CLEAR     39  38  96 S8        30.13R
SPRINGFIELD      N/A     40  39  97 NW9       30.15R
$$



USA.gov is the U.S. government's official web portal to all federal, state and local government web resources and services.